Location: LDNL
(36.4545°S, 141.6685°E)
Time: 12:17:41
(UTC+10:00)

Vanguard 3 - Pass Details

Date: 01 February 2022
Orbit: 508 x 3258 km, 33.3° (Epoch: 25 May)

Event Time Altitude Azimuth Distance (km) Brightness Sun altitude
Rises 23:56:35 0° 301° (WNW) 3,304 10.3 -30.3°
Enters shadow 23:57:14 - 302° (WNW) 3,070 10.1 -30.3°
Reaches altitude 10° 23:58:37 10° 305° (NW) 2,592 - -30.5°
Maximum altitude 00:04:44 55° 22° (NNE) 1,518 - -31.1°
Exits shadow 00:12:35 19° 92° (E) 3,543 10.1 -31.8°
Drops below altitude 10° 00:15:38 10° 95° (E) 4,517 10.7 -32.1°
Sets 00:20:20 0° 98° (E) 5,976 11.4 -32.5°
